Simultaneous Nadir Overpasses (SNOs) Predictions

Prediction of SNOs between METOP-A and TERRA Satellite Orbit:

Table of predicted SNOs for the next 14.0 days since TLE Epoch: 9/10/2016
Index Date (METOP-A) Time (METOP-A) Lat,Lon (METOP-A) SZA (METOP-A ) Date (TERRA) Time (TERRA) Lat,Lon (TERRA) SZA (TERRA ) Distance(km) Time Diff (sec)
1 09/11/2016 13:28:24 81.28, 24.61 79.88 09/11/2016 13:28:58 81.29, 24.70 79.90 1.40 34
2 09/11/2016 14:19:03 -81.29,-167.34 100.03 09/11/2016 14:18:24 -81.30,-167.43 100.06 1.58 39
3 09/14/2016 09:02:47 81.29, 91.16 80.99 09/14/2016 09:03:10 81.29, 91.24 81.01 1.35 23
4 09/14/2016 09:53:27 -81.29,-101.18 98.96 09/14/2016 09:52:37 -81.28,-101.25 99.00 1.34 50
5 09/17/2016 04:37:10 81.29, 157.69 82.11 09/17/2016 04:37:22 81.30, 157.78 82.13 1.67 12
6 09/
